Lewistown, MT

9:05 PM MDT on September 27, 2016 (GMT -0600)
Lewistown Municipal

Weather History for KLWT - August, 2014

Change the Weather History Date:

Tuesday, August 12, 2014

  Actual Average Record
Temperature  
Mean Temperature 78 °F 66 °F  
Max Temperature 97 °F 82 °F 101 °F (1940)
Min Temperature 59 °F 51 °F 31 °F (1987)
Degree Days  
Heating Degree Days 0 2  
Month to date heating degree days 0 19  
Since 1 June heating degree days 296 319  
Since 1 July heating degree days 10 92  
Cooling Degree Days 13 3  
Month to date cooling degree days 83 46  
Year to date cooling degree days 237 156  
Since 1 June cooling degree days 237 154  
Growing Degree Days 28 (Base 50)    
Moisture  
Dew Point 45 °F    
Average Humidity 38    
Maximum Humidity 60    
Minimum Humidity 16    
Precipitation  
Precipitation 0.00 in 0.06 in 0.64 in (1980)
Month to date precipitation 0.42 0.67  
Year to date precipitation 9.44 11.94  
Snow  
Snow 0.00 in - - ()
Snow Depth 0.00 in    
Sea Level Pressure  
Sea Level Pressure 29.96 in    
Wind  
Wind Speed 11 mph (ESE)    
Max Wind Speed 21 mph    
Max Gust Speed 27 mph    
Visibility 10 miles    
Events      
T = Trace of Precipitation, MM = Missing Value Source: NWS Daily Summary

Daily Weather History Graph

Daily Weather History Graph

Search for Another Location

Airport or City:

Trip Planner

Search our weather history database for the weather conditions in past years. The results will help you decide how hot, cold, wet, or windy it might be!

Date:

Astronomy

Aug. 12, 2014 Rise Set
Actual Time 6:11 AM MDT 8:33 PM MDT
Civil Twilight 5:37 AM MDT 9:07 PM MDT
Nautical Twilight 4:54 AM MDT 9:49 PM MDT
Astronomical Twilight 4:06 AM MDT 10:37 PM MDT
Moon 9:28 PM MDT (8/12) 8:45 AM MDT (8/12)
Length of Visible Light 15h 30m
Length of Day
14h 22m
Waning Gibbous, 94% of the Moon is Illuminated
Aug 12
Waning Gibbous
Aug 17
Last Quarter
Aug 25
New
Sep 2
First Quarter
Sep 8
Full

Hourly Weather History & Observations

Time (MDT) Temp. Dew Point Humidity Pressure Visibility Wind Dir Wind Speed Gust Speed Precip Events Conditions
12:54 AM 63.0 °F 42.1 °F 46% 30.05 in 10.0 mi ESE 8.1 mph - N/A   Clear
1:54 AM 63.0 °F 42.1 °F 46% 30.04 in 10.0 mi SE 10.4 mph - N/A   Clear
2:54 AM 62.1 °F 42.1 °F 48% 30.04 in 10.0 mi ESE 8.1 mph - N/A   Clear
3:54 AM 64.0 °F 44.1 °F 48% 30.03 in 10.0 mi SE 8.1 mph - N/A   Clear
4:54 AM 62.1 °F 46.0 °F 56% 30.04 in 10.0 mi SE 6.9 mph - N/A   Clear
5:54 AM 61.0 °F 46.0 °F 58% 30.04 in 10.0 mi SSE 6.9 mph - N/A   Clear
6:54 AM 60.1 °F 46.9 °F 62% 30.04 in 10.0 mi ESE 5.8 mph - N/A   Clear
7:54 AM 69.1 °F 48.9 °F 49% 30.03 in 10.0 mi SE 9.2 mph - N/A   Clear
8:54 AM 75.0 °F 50.0 °F 41% 30.01 in 10.0 mi ESE 8.1 mph - N/A   Clear
9:54 AM 82.9 °F 46.9 °F 28% 30.00 in 10.0 mi East 10.4 mph - N/A   Clear
11:54 AM 89.1 °F 48.0 °F 24% 29.96 in 10.0 mi East 15.0 mph - N/A   Clear
12:54 PM 91.0 °F 46.9 °F 22% 29.94 in 10.0 mi East 16.1 mph - N/A   Clear
1:54 PM 93.0 °F 46.0 °F 20% 29.92 in 10.0 mi East 16.1 mph 24.2 mph N/A   Clear
2:54 PM 95.0 °F 45.0 °F 18% 29.89 in 10.0 mi East 20.7 mph 24.2 mph N/A   Clear
3:54 PM 96.1 °F 42.1 °F 15% 29.86 in 10.0 mi East 15.0 mph - N/A   Partly Cloudy
4:54 PM 93.0 °F 41.0 °F 16% 29.86 in 10.0 mi East 16.1 mph - N/A   Scattered Clouds
5:54 PM 91.0 °F 43.0 °F 19% 29.85 in 10.0 mi East 10.4 mph - N/A   Clear
6:54 PM 90.0 °F 43.0 °F 19% 29.87 in 10.0 mi ESE 16.1 mph 23.0 mph N/A   Clear
7:39 PM 84.0 °F 45.0 °F 25% 30.03 in 10.0 mi West 16.1 mph - N/A   Partly Cloudy
7:54 PM 84.0 °F 44.1 °F 25% 29.89 in 10.0 mi SW 10.4 mph - N/A   Clear
8:54 PM 82.0 °F 44.1 °F 26% 29.89 in 10.0 mi SSW 4.6 mph - N/A   Mostly Cloudy
9:54 PM 82.0 °F 44.1 °F 26% 29.89 in 10.0 mi ENE 6.9 mph - N/A   Clear
10:54 PM 79.0 °F 45.0 °F 30% 29.88 in 10.0 mi ESE 9.2 mph - N/A   Clear
11:54 PM 75.0 °F 46.9 °F 37% 29.88 in 10.0 mi SE 5.8 mph - N/A   Clear